User: anonymous   Login
Location: Oshawa
(43.9000°N, 78.8670°W)
Time: 16:03:50
(UTC-05:00)
Language:

Explorer 11/Cluster Stage 4 - Orbit

View from above orbital plane
View from above orbital plane
View from above satellite
View from above satellite

Ground track
Ground track

The orbit data is extracted from the following two-line orbital elements,

1   107U 61013A   17344.43155953 +.00000727 +00000-0 +78089-4 0  9995
2   107 028.7910 335.6257 0548505 326.2132 030.4606 14.08475375836385
Epoch (UTC): 10 December 2017 10:21:26
Eccentricity: 0.0548505
inclination: 28.7910°
perigee height: 467 km
apogee height: 1262 km
right ascension of ascending node: 335.6257°
argument of perigee: 326.2132°
revolutions per day: 14.08475375
mean anomaly at epoch: 30.4606°
orbit number at epoch: 83638

The dashed part of the orbit path shows where the satellite is in the earth's shadow,  

DLR